Wind_Speed
9 10 10 10 10 10 10 9 10 11 11 11 11 11 11 11 10 9 8 6 4 3 2 1 2 1 2 2 5 4 9 24 31 35 27 18 26 21 16 19 20 19 12 7 7 5 3 4 5 5 4 3 4 2 2 3 2 4 3 1 2 2 3 4 6 5 2 2 3 2 1 3 2 1 3 2 7 5 5 5 4 6 8 8 13 19 19 16
10 11 11 12 12 11 10 10 10 11 10 10 10 10 10 11 11 10 7 6 5 3 2 2 3 5 5 4 4 4 4 18 29 27 22 24 25 17 14 20 21 17 13 10 9 7 4 2 4 4 5 3 2 2 2 3 3 3 3 1 3 5 4 4 4 4 3 2 3 3 1 2 3 4 4 1 1 2 6 4 3 7 7 9 15 20 19 18
12 12 12 12 11 10 9 10 10 10 10 10 10 9 10 10 11 13 11 7 7 6 4 2 4 6 7 6 4 3 2 11 20 17 22 28 23 16 16 20 22 18 14 11 10 8 4 1 1 3 4 3 1 2 3 3 2 1 2 1 4 5 3 3 4 5 3 2 2 3 1 0 2 3 2 2 3 2 3 4 3 5 5 5 9 16 18 18
11 10 10 10 9 9 8 9 10 9 10 9 9 9 9 9 11 15 15 9 8 11 12 12 12 9 5 2 4 3 1 7 8 13 24 28 21 14 15 18 21 19 14 10 9 8 4 3 4 4 4 2 3 3 3 3 2 1 3 3 4 2 1 2 3 5 3 1 1 1 2 2 3 1 2 4 3 3 3 3 4 8 10 7 6 12 16 18
9 9 10 10 8 8 8 9 9 9 9 9 8 8 8 9 10 14 16 10 8 12 15 17 20 21 19 12 3 4 1 6 6 18 28 26 18 12 13 18 18 17 16 11 8 7 5 4 7 6 4 2 4 4 2 3 2 1 1 2 3 3 1 3 3 2 2 1 1 2 2 2 1 1 1 4 2 2 2 3 5 11 10 9 8 11 15 17
8 9 10 9 8 7 8 8 8 8 8 8 7 7 8 8 10 12 14 11 7 8 8 9 10 12 15 17 15 9 6 3 9 23 28 22 14 10 11 15 17 16 15 15 11 9 7 7 7 5 3 3 4 3 1 3 2 0 2 2 1 3 1 5 4 3 1 1 1 1 2 0 2 1 1 3 2 4 3 2 10 12 12 14 13 13 13 13
8 9 9 8 7 7 7 7 6 7 7 7 6 6 8 8 10 12 14 15 11 5 2 1 3 5 5 5 15 19 10 1 15 25 25 18 10 9 10 12 15 14 14 18 15 8 6 8 6 3 3 4 1 1 1 3 4 3 1 4 2 3 2 5 4 4 2 0 3 1 0 1 1 1 2 5 4 4 2 11 16 16 16 18 15 12 13 14
8 9 9 8 7 6 6 6 5 5 6 5 4 5 7 8 8 11 17 22 20 16 10 4 4 5 4 2 5 12 7 6 20 25 22 13 7 9 9 10 14 14 15 17 12 4 4 6 3 2 3 3 2 1 3 2 4 4 1 5 2 0 4 5 4 5 5 2 2 2 1 1 1 2 4 4 5 3 8 13 15 16 16 15 12 11 13 14
8 8 8 7 6 6 5 5 4 4 4 4 3 4 5 6 6 8 13 15 15 17 18 18 11 2 2 3 5 7 7 13 20 22 18 11 7 9 9 10 13 13 13 14 12 8 3 2 1 2 2 1 2 1 4 3 2 1 1 4 3 3 5 5 5 7 6 3 2 2 4 3 1 3 4 3 2 4 8 10 10 11 11 10 9 10 12 13
7 7 7 7 6 5 4 3 3 3 3 3 3 4 4 5 5 5 6 7 8 8 11 17 20 18 13 7 8 7 9 16 19 20 16 8 6 8 9 12 12 10 10 11 14 11 4 2 2 4 5 2 2 1 3 3 1 0 2 1 2 5 4 4 4 5 5 2 3 2 5 3 1 1 2 1 0 3 8 9 8 10 10 9 8 9 13 14
6 6 7 6 6 5 3 3 3 3 3 2 2 4 5 4 4 4 4 4 5 8 9 8 11 21 24 15 10 7 11 18 20 21 16 8 8 9 10 12 10 10 8 9 12 9 5 3 4 4 2 1 1 2 2 1 0 0 3 1 2 6 3 5 5 5 4 1 3 1 3 5 3 4 1 1 1 3 8 10 8 9 8 7 8 8 12 14
5 6 7 6 6 5 4 4 3 3 2 2 3 4 4 2 2 2 3 3 4 6 9 10 8 7 13 16 10 6 13 20 21 21 18 11 10 11 11 10 10 10 7 7 9 8 8 5 7 7 1 0 0 2 1 1 1 0 4 1 5 8 4 5 5 5 3 1 4 1 1 5 5 6 4 1 2 2 8 9 8 8 6 6 7 6 9 13
6 7 7 7 6 5 5 4 3 2 1 3 4 4 4 2 2 2 1 2 4 5 5 9 12 7 6 7 7 11 17 22 23 19 18 15 10 10 10 10 11 11 10 9 8 9 9 7 12 10 2 3 1 1 2 4 3 1 5 3 4 8 3 4 4 6 6 2 6 5 3 4 0 5 5 1 3 4 8 8 6 6 5 5 5 5 7 12
8 8 8 7 6 6 6 4 2 1 2 4 3 3 4 4 6 6 6 4 3 5 5 4 6 10 10 4 3 15 18 22 28 24 23 20 13 10 8 10 13 15 14 12 9 9 8 8 13 10 3 4 0 2 4 5 4 2 5 2 3 4 4 7 6 6 7 3 6 7 4 4 2 3 6 0 3 5 8 7 6 5 4 4 4 5 5 9
8 8 8 7 7 8 6 4 3 2 3 3 2 2 3 5 7 7 9 9 6 4 5 6 4 5 7 3 2 14 19 25 32 32 28 23 18 15 9 4 6 12 15 14 12 9 9 10 11 6 3 4 3 5 4 4 4 4 4 4 3 1 4 8 5 3 4 4 6 7 4 4 2 2 7 1 5 5 7 7 5 5 5 4 3 5 4 6
7 7 8 8 8 8 7 8 10 10 9 7 6 3 1 3 4 4 6 9 12 9 6 7 7 6 6 2 5 11 18 22 26 31 29 22 17 16 14 6 3 5 7 12 16 12 12 12 7 3 3 5 6 5 3 3 4 3 4 4 5 4 5 7 4 2 2 3 5 5 3 5 1 4 8 1 6 6 7 7 5 4 4 4 3 4 4 4
7 7 8 8 8 10 13 16 18 20 21 21 20 17 12 7 2 3 4 2 8 9 10 10 7 6 6 5 6 7 12 15 21 31 32 22 14 15 18 12 8 7 2 7 19 15 11 9 3 2 5 5 4 3 5 7 7 4 4 3 4 3 5 7 6 3 3 3 4 2 2 3 3 5 6 2 7 8 8 7 5 4 3 3 3 3 4 4
8 8 9 9 10 12 13 14 16 18 19 19 20 20 22 22 17 12 7 2 2 4 8 12 8 5 4 8 5 8 14 14 19 31 33 23 11 14 19 12 9 11 4 5 14 13 7 5 3 3 4 5 5 6 8 4 5 5 6 5 5 3 2 6 7 4 5 4 4 5 4 2 5 5 5 4 6 8 7 6 5 4 3 3 3 3 3 4
9 10 10 11 11 11 9 8 9 9 8 7 6 6 8 14 21 27 27 17 8 4 3 7 7 4 1 6 8 14 14 8 15 29 35 28 11 9 16 11 7 10 7 3 7 8 4 4 5 4 5 7 6 5 6 1 5 6 7 4 6 7 3 6 8 4 3 4 6 5 3 2 5 4 5 4 4 7 6 5 4 3 3 3 3 3 3 5
9 10 10 10 9 7 4 3 4 4 3 2 4 5 2 3 8 12 18 16 8 5 5 1 2 3 1 4 10 18 11 2 10 26 37 31 12 7 13 10 7 8 7 1 3 4 3 6 6 3 5 6 4 1 2 2 4 5 6 3 6 6 5 7 8 5 2 3 5 1 3 3 3 3 3 3 4 6 5 4 4 3 3 3 3 3 3 5
9 9 9 7 5 3 2 1 1 3 4 6 6 3 1 2 5 1 2 7 5 6 7 2 1 3 1 2 11 15 5 1 7 23 37 30 10 6 8 7 7 8 6 1 2 3 5 8 4 4 5 4 2 0 0 2 1 3 6 6 6 5 8 8 5 5 3 5 6 2 5 2 2 2 2 3 4 4 3 4 3 4 4 3 3 3 3 3
9 8 7 6 4 3 2 3 4 2 1 1 2 6 4 5 9 8 5 4 4 5 5 3 5 4 2 2 12 11 3 6 10 20 34 27 11 7 4 5 8 3 6 3 2 5 6 7 5 5 1 1 2 2 3 5 4 5 5 4 5 6 9 7 4 5 2 3 6 2 3 1 2 2 2 3 3 3 3 3 4 4 5 4 4 4 4 3
7 7 6 6 5 4 4 5 5 5 6 7 9 10 9 11 12 8 5 6 1 2 2 4 6 5 4 4 12 11 7 8 7 14 28 21 8 4 3 6 6 2 6 6 5 6 5 5 5 1 2 3 2 4 6 6 4 6 6 4 7 8 8 7 8 11 7 4 3 1 1 1 2 2 3 3 2 4 4 5 6 4 4 3 2 2 3 5
6 6 5 4 4 4 5 7 6 7 9 11 13 12 11 11 9 5 4 4 1 1 1 1 3 3 3 4 12 8 5 5 1 10 23 16 4 2 4 3 4 5 6 4 7 8 3 3 1 2 4 5 4 7 9 7 6 6 4 3 7 10 10 9 11 12 9 4 0 1 3 1 3 3 3 2 3 5 4 6 6 4 4 2 2 3 3 4
5 4 4 3 3 2 3 5 6 8 9 10 12 11 10 8 4 2 4 3 3 2 2 1 2 4 2 6 13 4 4 4 2 7 16 12 4 2 3 1 3 6 6 3 6 6 2 2 1 3 6 8 7 7 7 5 6 6 3 1 7 12 13 13 11 9 6 3 2 2 4 2 2 5 5 3 3 5 4 5 5 4 4 5 5 5 5 5
4 3 2 2 2 1 1 1 4 7 6 6 9 9 7 4 2 2 4 4 3 3 4 2 1 6 5 8 12 2 4 5 3 9 16 13 5 2 3 4 2 5 3 2 3 2 2 3 3 4 5 9 8 6 4 3 6 6 3 2 8 12 13 13 10 5 3 4 2 2 2 3 1 3 5 5 5 5 4 4 4 2 4 6 6 5 5 6
5 3 3 3 3 2 2 1 5 5 2 4 8 7 3 2 2 2 3 5 4 2 4 4 2 7 7 9 11 3 3 7 5 10 17 15 9 1 4 5 2 3 2 2 3 2 2 6 6 6 6 7 6 6 4 3 4 6 6 6 10 13 14 13 7 2 2 4 4 3 1 3 2 2 3 7 7 5 5 5 4 3 4 6 6 6 6 6
6 5 4 4 3 2 2 2 6 4 2 6 7 4 2 3 2 1 4 4 3 1 1 3 2 6 6 8 12 7 1 6 2 8 18 17 11 2 5 4 1 2 3 4 5 4 1 5 5 5 6 5 4 7 6 2 1 6 9 9 10 12 11 8 3 2 2 3 4 3 2 3 4 2 3 7 6 4 5 5 6 6 6 6 7 7 7 7
8 6 5 3 1 1 3 4 5 4 5 7 6 4 4 3 2 3 5 3 2 1 1 1 2 5 7 7 9 5 3 5 3 7 16 15 14 7 4 1 2 1 3 4 5 3 2 1 1 3 5 2 5 7 6 5 3 7 9 9 10 7 4 2 1 2 3 4 5 6 4 3 7 3 3 4 4 2 3 3 5 6 6 7 7 7 8 7
9 7 5 2 2 3 4 4 5 7 7 7 6 5 5 3 4 5 3 1 1 2 1 3 2 4 8 7 5 5 4 4 2 5 7 6 13 11 4 0 3 5 2 4 5 4 3 1 1 3 3 1 5 6 4 2 5 7 6 10 11 6 1 2 1 2 4 3 5 4 3 3 6 2 2 1 3 3 1 3 5 7 7 7 7 7 7 7
11 9 7 2 3 4 3 4 6 9 7 7 7 5 3 2 5 7 1 2 1 3 3 4 3 4 8 6 4 5 4 4 5 5 5 4 9 10 5 4 4 3 5 5 5 7 5 3 1 1 0 0 2 4 2 2 3 5 6 10 12 7 3 2 2 3 4 3 5 6 8 6 5 1 2 3 4 4 2 3 8 10 10 8 7 7 7 7
13 11 9 5 2 3 4 6 8 9 7 8 6 4 4 3 3 3 1 3 2 2 2 1 3 4 5 3 4 6 4 4 4 4 4 4 6 8 7 6 4 4 6 5 5 7 3 1 3 3 0 2 5 5 5 4 5 6 7 9 9 8 5 4 5 6 4 6 8 11 11 5 2 1 4 7 5 3 3 4 5 7 8 7 7 8 8 8
15 10 8 8 5 6 8 9 9 9 8 7 4 5 7 5 1 2 3 3 1 2 1 0 3 3 3 3 5 5 2 2 4 5 2 2 5 6 7 6 5 4 3 3 5 6 3 3 4 4 1 3 7 6 5 5 6 6 5 7 6 6 6 6 6 6 7 9 10 10 5 1 3 2 7 8 5 4 4 5 4 5 6 6 7 9 10 11
15 13 9 9 9 8 9 8 8 8 7 5 4 5 6 3 2 2 2 3 1 3 1 0 4 3 3 3 3 4 2 2 4 5 4 3 4 4 4 6 7 4 1 2 3 3 4 4 4 4 2 3 7 3 2 2 3 2 1 5 6 3 3 5 4 5 9 11 10 7 1 2 9 3 7 7 3 3 4 4 4 4 4 6 10 11 13 14
9 15 14 13 10 6 5 5 6 7 5 4 6 6 4 2 3 2 2 3 1 3 2 1 3 4 3 3 3 2 1 2 3 4 4 4 3 2 3 4 5 3 2 2 1 0 1 4 5 2 1 2 6 3 1 0 2 2 0 3 5 4 1 3 4 6 9 10 8 3 1 3 5 2 5 1 3 5 5 5 7 8 9 11 13 14 15 13
2 10 16 16 12 7 2 2 5 5 4 5 7 5 2 4 2 2 2 1 1 1 2 2 4 5 4 4 4 4 2 2 2 3 3 2 1 1 1 2 3 3 2 2 1 1 1 5 6 5 3 2 4 3 1 3 2 2 3 4 5 3 2 1 7 8 8 8 5 3 5 5 3 2 1 2 5 7 8 10 10 10 14 15 14 15 15 11
5 3 11 16 15 8 2 1 5 5 4 7 6 2 3 2 1 2 2 1 0 2 3 2 2 2 2 3 4 6 4 2 3 4 2 1 1 2 2 1 1 2 1 2 1 1 1 5 6 4 3 3 1 3 3 3 3 3 4 5 5 2 3 2 6 7 8 9 4 4 9 8 5 3 1 3 9 12 12 12 11 13 16 16 15 17 14 13
6 3 6 15 17 9 3 2 4 4 6 8 5 2 2 0 1 1 2 1 0 2 5 2 0 0 1 1 3 5 5 3 4 4 2 2 1 3 2 1 1 1 2 1 1 0 1 4 5 1 2 6 2 6 4 4 4 4 2 2 2 4 4 3 2 5 10 11 8 8 10 6 4 5 4 7 14 16 13 12 14 17 17 16 18 17 15 17
5 2 3 13 15 8 4 2 3 5 7 6 3 2 1 1 1 1 1 1 1 3 3 1 1 1 2 2 1 3 3 2 2 3 2 2 2 3 3 0 1 1 2 2 2 1 1 1 4 3 4 6 3 3 3 4 3 3 3 2 3 1 1 1 1 1 5 8 10 12 11 6 4 3 6 12 15 14 13 13 15 17 18 18 17 15 17 18
3 2 2 13 13 4 4 5 6 8 6 4 3 2 1 1 1 1 0 0 1 1 1 2 2 1 0 1 1 1 2 2 1 1 1 1 1 1 2 1 1 2 3 3 3 1 1 1 3 5 4 3 3 2 1 1 2 4 4 4 5 2 2 2 0 1 1 5 9 9 8 6 3 1 7 14 13 11 13 16 16 17 19 18 15 16 17 14
3 2 2 14 11 2 2 9 8 5 4 3 2 2 2 2 2 2 1 1 1 0 1 4 3 2 1 0 0 1 1 2 1 1 0 1 1 1 1 2 2 1 2 4 3 0 0 1 3 5 5 3 2 2 3 4 4 4 3 2 3 3 3 5 5 1 2 2 4 4 7 8 3 2 8 13 10 10 14 17 17 18 20 18 16 18 15 11
5 2 3 14 7 4 6 8 3 3 4 3 2 2 2 2 2 1 1 1 1 0 2 3 2 2 2 1 0 2 1 1 0 1 1 1 0 1 1 2 3 1 2 1 2 2 2 2 1 4 4 5 4 1 1 4 7 6 4 2 1 2 4 3 5 5 2 2 4 5 8 7 2 4 10 11 9 11 14 15 17 19 19 18 19 18 12 10
3 3 3 13 3 5 9 6 2 5 4 1 1 1 2 2 2 1 0 1 1 0 2 1 1 1 1 1 1 2 2 1 1 1 1 2 1 1 1 2 2 1 2 1 2 1 1 2 2 4 5 4 2 1 1 2 4 4 4 2 2 2 3 4 4 5 3 3 5 5 7 7 5 7 10 10 11 14 14 13 16 18 17 18 20 15 10 12
2 4 3 13 4 5 4 4 2 2 1 1 3 3 2 2 2 1 0 1 1 1 2 1 0 1 1 1 2 2 1 1 1 0 1 2 1 0 1 2 2 1 2 0 1 2 1 1 3 5 7 6 4 4 3 1 2 2 1 2 3 3 1 2 2 1 1 4 7 8 8 9 10 10 11 12 13 16 15 14 15 16 17 19 16 11 11 14
3 1 2 12 14 8 4 3 6 5 3 3 5 2 2 2 1 1 1 1 0 2 2 1 0 1 2 2 2 0 0 1 0 1 1 1 2 2 2 1 0 1 1 1 2 1 0 0 2 3 4 7 7 7 8 7 5 2 2 2 2 3 2 3 3 3 4 7 8 8 9 14 16 14 13 13 14 17 19 19 17 14 17 18 12 10 13 14
2 2 2 7 12 9 3 1 5 6 5 4 4 1 1 3 1 1 2 1 0 1 2 1 1 2 2 2 2 1 2 2 2 1 1 1 3 1 2 2 2 2 2 2 4 3 3 0 2 5 4 5 7 9 11 9 7 6 3 2 2 1 1 2 4 5 8 11 8 7 11 18 20 15 13 13 15 17 19 20 20 18 18 16 10 11 14 13
2 2 1 2 3 5 5 4 5 4 4 4 3 1 2 2 1 1 1 1 1 1 2 2 1 1 1 1 2 1 2 2 2 1 2 2 3 2 2 1 2 0 2 1 3 4 4 2 3 5 7 9 9 12 13 10 7 9 6 2 3 4 1 2 3 6 9 10 10 13 16 19 19 15 14 15 16 16 19 19 19 20 19 14 10 13 16 15
2 3 1 1 2 2 3 3 3 5 4 3 3 1 2 2 1 1 1 0 1 0 0 1 3 2 1 1 2 1 1 2 1 1 1 1 2 3 3 1 1 2 0 2 3 4 5 2 3 4 6 9 10 12 13 9 6 5 3 1 3 5 4 4 6 8 7 7 12 19 19 16 17 15 15 16 14 15 18 18 17 18 15 12 12 15 16 17
3 4 1 2 3 3 1 2 4 6 5 4 3 2 3 5 3 2 1 1 2 1 0 1 2 2 1 1 3 2 1 1 1 2 2 2 1 2 2 1 1 2 2 2 3 2 3 3 3 2 6 10 11 11 9 6 4 4 3 2 3 5 6 7 7 8 9 10 14 19 17 14 12 13 15 15 13 13 14 15 17 17 13 12 14 16 16 18
2 4 2 3 4 2 2 3 4 5 4 3 3 1 3 6 5 2 0 1 1 1 2 1 2 1 1 2 4 2 3 3 1 3 4 2 1 1 1 1 2 2 4 2 1 1 1 2 0 2 4 9 9 7 6 4 4 3 3 4 4 5 6 6 6 7 10 12 12 13 15 13 9 11 15 15 13 14 16 18 19 15 12 13 15 16 17 18
4 5 7 7 4 3 3 2 3 4 2 1 2 3 2 4 5 4 2 1 2 2 1 1 3 3 1 1 2 2 4 4 4 5 6 4 1 2 2 2 3 1 3 1 1 2 2 2 2 4 4 8 5 4 10 8 1 3 2 4 4 6 7 5 6 8 10 11 10 9 11 11 10 13 16 16 16 17 18 20 19 12 10 14 16 17 18 18
6 5 5 7 4 2 1 2 3 3 2 1 2 3 1 3 4 4 3 0 1 1 1 3 5 3 1 1 2 3 4 4 4 4 4 4 2 2 1 2 4 2 1 2 1 1 2 1 2 3 2 7 4 8 14 10 4 3 3 4 1 6 9 8 9 10 6 2 4 4 6 9 12 15 16 17 18 17 16 18 15 10 11 15 18 18 18 18
Wind_Direction
60 57 53 54 51 46 50 54 65 72 68 58 52 58 57 55 51 50 56 65 87 130 150 216 207 271 339 337 1 25 31 38 40 36 38 13 356 357 349 351 352 356 5 23 46 69 80 43 19 37 85 73 14 337 22 26 50 54 78 100 271 219 205 198 190 205 200 279 285 283 210 159 220 176 163 80 55 78 70 47 45 53 62 87 107 115 122 127
51 53 46 44 43 43 51 64 75 77 69 59 56 61 57 55 51 49 57 63 78 107 165 251 262 268 294 289 320 3 27 32 35 32 21 2 1 3 358 4 7 13 25 41 45 52 71 8 348 42 62 58 345 332 44 16 40 82 123 139 231 205 216 201 188 214 205 248 268 275 268 201 223 150 158 182 109 124 87 54 49 73 72 83 101 113 122 120
48 50 44 39 38 43 59 73 80 79 68 58 58 62 60 58 49 46 50 66 82 84 87 4 310 279 286 271 284 329 306 26 32 17 358 357 0 5 10 13 15 18 22 35 38 39 76 115 74 70 57 62 353 350 40 15 358 136 135 231 239 216 247 235 217 236 225 239 271 284 314 214 257 132 166 180 156 193 144 145 118 110 119 101 102 113 116 104
49 50 47 42 43 54 70 79 81 78 63 55 59 63 62 55 48 42 41 60 92 90 81 65 55 47 31 292 272 272 299 46 26 345 348 352 356 6 16 15 15 20 20 29 33 34 71 83 57 66 68 47 339 19 44 347 350 136 143 201 230 184 274 277 245 252 251 246 217 284 357 333 273 154 164 149 146 263 226 200 159 151 146 131 124 114 100 86
50 51 51 49 55 66 77 82 82 75 58 54 59 62 61 52 51 42 34 51 106 106 88 72 65 59 59 55 42 221 113 57 342 341 346 344 354 8 15 14 14 17 23 35 32 31 44 39 48 47 52 49 349 24 45 326 42 130 206 199 199 129 267 313 338 292 260 235 84 62 335 296 230 75 131 151 182 269 266 256 144 139 139 131 125 104 86 79
50 51 54 57 65 74 80 84 81 69 54 51 57 59 59 56 54 42 34 49 104 131 105 75 60 50 54 53 56 74 96 84 326 340 340 339 358 10 11 11 12 12 22 39 32 30 35 24 47 43 34 57 15 29 352 316 27 256 304 3 244 177 268 328 351 332 322 75 13 325 262 155 87 13 66 86 342 282 271 168 125 123 125 115 102 91 82 78
50 54 59 65 71 79 81 84 79 64 50 46 53 60 62 63 56 45 48 61 78 108 149 310 321 347 2 27 49 58 84 81 336 339 339 345 1 8 13 8 10 10 23 36 27 35 50 30 51 91 64 54 17 29 329 307 28 72 306 346 334 186 284 322 326 336 27 296 277 267 289 30 41 333 54 41 344 311 84 113 115 113 108 98 89 86 85 82
55 59 64 72 76 80 81 84 74 56 46 44 57 66 65 67 59 57 68 72 69 65 57 24 298 302 335 296 55 54 59 338 340 342 343 352 7 8 10 6 8 14 32 37 23 38 66 38 65 152 64 51 173 21 344 322 22 57 331 319 341 159 313 318 335 359 15 305 295 84 314 305 113 94 63 8 340 37 97 107 108 105 96 89 89 88 86 83
62 65 71 77 78 81 84 82 68 51 48 54 64 64 65 71 71 71 75 71 60 56 54 52 50 45 89 108 98 63 7 339 343 349 354 4 19 6 6 15 14 19 41 40 29 44 65 65 152 172 130 121 129 8 345 4 357 29 316 310 350 350 324 336 358 5 3 325 36 55 307 324 128 99 60 350 342 90 105 102 97 97 89 87 91 85 88 83
67 71 77 79 81 84 86 79 66 59 62 70 74 64 72 89 95 83 69 53 39 37 41 52 58 64 80 91 79 61 347 344 356 3 8 21 23 2 13 24 19 27 46 41 36 41 52 158 183 143 130 101 75 18 355 22 27 338 329 310 35 349 324 357 354 349 353 327 36 358 307 337 260 40 52 338 245 126 108 96 82 90 89 89 91 84 86 80
66 74 83 86 89 89 89 85 76 79 84 86 85 78 78 100 112 86 65 49 40 42 39 47 58 61 65 68 74 57 351 356 9 16 21 30 24 16 26 29 30 39 46 46 42 40 55 123 148 122 109 64 47 15 19 15 125 2 349 143 12 350 335 8 0 343 2 14 24 356 303 356 14 12 15 214 196 143 105 95 82 89 95 92 95 87 83 78
74 88 92 94 93 92 93 85 84 90 98 99 96 83 66 90 124 91 76 61 47 57 55 50 49 55 57 59 68 37 6 11 15 25 33 36 34 31 35 39 46 49 49 58 48 46 66 94 94 85 19 162 87 359 92 69 73 52 25 53 326 359 358 352 357 338 3 4 343 352 338 2 18 358 324 163 105 111 94 93 90 93 97 92 97 90 83 78
93 97 94 92 86 84 82 74 85 101 112 115 100 75 50 47 65 64 73 61 50 58 58 51 55 60 54 62 57 25 19 19 20 30 35 35 41 36 42 55 58 52 49 64 63 58 71 78 83 95 119 85 58 318 103 39 36 303 19 54 338 8 349 328 353 339 356 0 346 2 334 319 17 2 343 78 105 120 98 93 97 94 94 91 90 86 84 74
100 95 87 81 74 77 77 73 84 115 127 123 106 80 55 48 70 71 58 67 97 65 47 45 63 62 57 98 63 24 17 20 26 25 19 22 31 31 50 74 68 60 55 57 60 64 77 80 80 94 91 65 339 340 43 10 21 353 355 45 27 10 298 323 345 352 359 336 6 16 314 280 178 3 340 256 150 135 108 100 105 99 93 89 82 82 78 69
95 85 75 71 75 79 78 75 67 78 122 138 122 91 53 64 91 77 52 63 86 76 53 48 56 73 63 84 39 14 11 20 22 16 10 11 18 14 11 57 66 52 52 50 52 62 71 71 69 63 344 1 27 37 26 345 19 35 358 344 351 332 284 319 325 15 5 296 7 26 298 275 160 355 329 223 159 130 110 110 109 103 98 91 82 80 74 69
83 71 68 73 81 86 95 97 92 93 98 99 86 74 85 126 126 67 41 61 61 55 60 35 26 75 93 5 337 0 11 15 9 8 11 11 13 6 1 15 347 359 47 47 44 49 52 58 65 59 10 8 27 38 40 16 357 22 28 336 315 322 318 321 318 31 32 293 347 21 283 280 283 353 334 191 144 119 114 118 110 107 104 95 88 81 76 70
66 64 74 84 97 108 108 101 98 98 94 89 81 73 75 87 175 259 292 53 56 54 60 33 14 80 78 357 347 349 351 355 358 5 11 13 16 15 20 33 2 348 126 37 27 27 30 41 46 46 43 27 13 20 46 24 339 337 17 334 292 306 314 322 323 337 30 3 330 342 231 268 341 353 347 88 127 119 122 127 124 119 106 96 93 86 78 68
62 70 84 98 114 118 110 105 107 104 97 91 82 72 70 70 75 74 52 70 46 19 40 20 20 88 34 357 351 316 318 334 359 6 9 13 19 24 29 38 10 12 55 20 17 19 12 24 45 61 38 19 14 38 51 7 304 310 323 322 308 297 272 302 305 316 13 8 305 293 263 303 7 0 13 54 113 119 123 126 124 117 106 101 87 86 79 63
70 77 94 112 124 123 116 124 130 122 107 98 77 44 54 63 67 62 52 55 59 42 43 354 16 103 300 331 324 322 319 323 5 7 8 8 5 18 26 34 34 34 41 13 7 12 13 26 38 45 12 4 5 45 74 280 257 275 286 282 297 304 294 273 276 293 4 329 287 291 292 11 19 8 27 36 95 110 118 118 116 113 101 97 83 86 72 60
77 83 104 123 133 136 143 172 203 199 186 238 297 331 359 51 46 40 33 43 62 74 94 272 27 90 331 326 332 343 346 328 19 12 7 3 352 6 17 16 30 46 44 11 329 351 58 56 37 6 335 329 319 350 108 257 244 267 292 291 286 293 305 290 281 292 8 332 281 204 81 47 30 15 36 49 85 98 110 110 109 108 90 80 75 70 61 60
81 88 104 118 134 142 169 208 258 221 241 273 282 350 131 142 72 115 327 36 44 53 74 114 97 65 342 333 344 352 359 284 16 15 8 3 0 16 7 6 29 32 11 296 265 333 52 56 7 298 294 292 305 256 162 326 294 310 321 318 306 304 311 304 279 285 14 2 305 113 91 50 47 32 44 70 87 91 101 110 106 98 85 74 66 49 46 55
85 88 90 90 103 106 99 77 53 48 16 351 95 87 116 130 115 139 148 86 29 29 72 74 63 39 304 2 357 354 24 360 358 6 5 5 18 26 2 31 52 26 339 356 20 2 43 42 332 288 261 131 71 68 19 12 4 335 330 316 315 333 330 315 294 302 357 348 309 51 81 61 73 61 59 60 83 76 57 81 86 93 85 61 51 40 24 7
82 78 76 75 81 78 65 61 54 58 77 98 102 99 109 114 123 131 99 95 55 349 39 44 64 28 346 24 5 8 52 29 352 348 359 6 20 41 58 39 45 29 354 19 49 49 48 2 331 312 85 95 50 6 14 21 9 339 339 334 326 340 342 321 318 323 314 285 283 35 45 132 103 87 85 49 69 75 55 65 67 78 85 61 43 30 9 353
70 66 68 65 64 58 48 54 67 79 89 105 104 109 122 121 127 123 82 88 53 350 35 74 118 67 30 12 1 19 75 47 13 339 356 9 5 20 67 44 36 28 0 25 71 85 99 300 326 76 37 51 36 5 15 13 355 333 309 324 332 329 321 300 305 316 311 298 28 31 326 179 164 180 145 110 92 80 58 66 62 55 58 33 349 342 328 320
54 53 54 47 41 29 36 51 75 90 94 106 112 117 122 122 139 115 89 73 9 325 352 141 131 45 33 356 357 20 112 46 77 343 352 7 354 357 49 29 67 25 345 40 76 85 100 295 32 41 19 42 34 6 14 7 349 334 291 324 331 317 308 302 309 325 335 335 46 44 330 302 187 193 182 163 120 91 66 65 60 46 25 356 331 323 300 278
37 27 18 9 10 11 8 62 96 104 100 109 124 132 127 122 121 86 95 64 10 313 355 18 84 13 354 343 345 5 87 6 322 355 3 9 0 138 64 348 39 25 333 94 80 79 38 359 57 64 32 40 30 358 5 22 1 341 296 316 323 312 306 307 323 346 340 306 330 59 334 288 261 218 198 162 119 91 78 61 51 29 351 335 315 307 298 279
19 1 338 317 318 314 290 201 145 133 111 151 148 144 147 141 110 79 78 40 2 297 358 340 332 14 3 342 347 81 75 323 316 9 5 4 353 139 68 11 10 358 304 94 32 335 8 1 25 49 37 39 22 344 344 32 18 325 309 327 322 313 307 307 327 342 272 301 334 48 65 270 285 279 174 135 115 93 78 45 5 299 298 306 295 295 300 289
11 356 337 317 307 290 271 163 161 161 137 168 168 161 166 161 163 101 83 66 345 324 32 318 336 21 8 359 16 73 86 319 21 356 345 2 5 14 65 37 143 280 294 82 35 311 344 17 15 34 38 38 354 316 311 359 27 288 307 323 307 300 297 296 313 265 277 346 338 351 24 302 295 335 81 118 128 105 70 21 329 292 283 290 285 282 289 293
12 360 352 336 310 160 156 155 162 159 147 160 160 154 155 134 116 69 80 108 323 4 172 325 16 355 351 11 22 45 19 1 67 330 337 7 12 21 80 45 145 172 304 72 62 325 310 45 149 92 62 23 301 295 303 341 326 285 304 317 306 301 291 304 11 300 349 18 324 323 32 352 311 329 70 120 137 85 32 337 306 288 283 289 289 281 283 293
15 10 6 344 186 146 146 146 140 141 142 153 153 145 142 93 63 64 56 194 328 332 268 19 24 340 5 22 359 5 35 11 334 332 345 9 1 12 93 137 86 103 359 36 53 340 319 291 179 111 84 249 268 282 288 298 297 302 324 334 332 334 322 351 24 32 20 358 284 299 30 358 314 317 76 108 133 110 330 316 325 318 315 312 304 292 286 290
21 22 17 0 189 178 163 130 131 144 143 143 145 125 104 36 60 90 112 248 289 335 10 22 358 13 31 39 356 354 24 346 332 11 12 5 3 9 34 19 27 55 17 20 6 341 359 34 343 304 119 273 280 288 280 228 294 337 3 356 348 344 346 356 5 43 33 310 280 310 331 331 308 299 102 142 156 146 183 317 333 329 328 323 311 308 303 295
28 27 26 33 145 175 153 143 141 140 137 137 131 83 75 33 25 105 271 313 336 336 28 358 325 12 15 29 16 345 342 339 356 49 29 16 33 27 34 25 357 8 11 8 350 345 8 105 319 321 289 15 6 346 340 356 8 9 15 12 356 339 347 359 345 355 350 318 319 321 320 324 302 268 146 161 189 194 213 261 304 316 317 313 312 315 313 308
37 34 37 52 89 118 118 136 147 139 141 137 103 50 77 81 14 212 270 329 3 329 39 226 316 353 343 10 12 336 336 343 352 32 36 47 54 38 36 27 15 24 356 345 358 354 339 297 344 10 314 7 32 20 341 343 1 4 14 21 4 342 342 331 325 333 322 314 317 317 307 278 329 321 155 168 197 217 251 255 258 285 295 299 308 312 315 319
44 47 58 63 75 100 113 133 149 145 144 116 75 55 72 87 219 202 277 276 278 342 47 66 330 358 34 39 345 322 11 344 349 26 13 26 46 23 15 11 16 46 120 21 18 19 4 320 345 25 313 350 34 38 273 295 328 335 47 37 13 349 320 305 308 323 318 311 314 337 54 291 325 348 158 173 200 237 266 263 275 296 305 312 315 321 324 322
48 49 55 57 56 68 102 140 155 155 146 82 64 69 94 187 230 179 245 257 286 342 343 4 21 31 14 349 327 340 31 314 352 46 23 25 56 28 2 344 353 21 80 46 343 87 47 270 275 339 281 24 23 348 221 17 314 265 159 41 1 335 278 257 274 287 299 302 307 341 97 283 324 84 146 188 294 284 286 318 343 348 344 334 330 331 326 323
103 44 43 42 36 34 52 152 164 160 139 84 65 59 153 198 202 160 195 278 35 1 333 349 43 44 342 317 334 353 4 296 343 38 35 45 92 72 33 284 321 11 73 99 331 352 36 275 294 345 351 69 31 344 27 26 350 336 356 343 310 304 120 327 306 298 300 307 303 309 314 321 2 87 108 305 294 300 324 343 355 355 342 337 335 330 324 332
177 61 36 28 21 21 30 177 175 160 101 78 83 106 208 198 143 156 170 20 205 103 73 56 32 27 320 303 318 326 341 341 356 24 36 34 61 94 85 254 275 12 48 138 190 251 179 283 303 7 348 275 108 76 59 22 41 55 355 311 288 283 111 73 328 322 326 320 308 318 321 329 356 345 307 291 315 332 345 349 352 345 339 339 333 327 330 343
178 156 42 18 10 16 50 114 154 134 85 68 81 144 192 125 85 150 136 106 189 61 74 106 201 5 205 248 304 314 340 359 3 22 43 349 12 117 106 304 209 349 324 75 78 210 152 298 305 38 280 289 5 74 32 349 43 61 357 323 356 350 1 28 346 332 335 323 310 322 323 325 341 334 334 336 339 345 347 349 347 341 341 338 330 331 339 341
160 144 38 4 1 15 46 110 126 78 72 77 95 158 155 89 69 126 143 117 110 80 77 165 204 67 154 172 253 307 349 20 359 14 60 12 0 108 114 227 253 336 333 77 116 240 137 335 296 280 279 303 356 49 347 328 352 25 29 25 31 11 266 148 146 354 339 314 309 320 323 329 330 316 340 347 348 350 347 346 343 340 339 334 331 339 340 336
141 124 356 354 358 21 45 64 72 51 64 110 163 166 75 89 99 86 143 341 113 104 96 181 163 64 196 206 199 282 6 55 32 11 61 22 355 57 94 156 245 337 357 47 82 291 1 136 256 289 312 334 353 344 179 146 337 356 29 18 6 7 212 224 251 112 83 307 313 317 311 320 337 334 351 352 353 356 349 342 338 336 334 332 336 342 337 337
95 95 320 350 354 204 76 54 54 49 86 107 133 136 59 115 119 42 17 11 30 187 144 153 145 108 149 108 102 206 11 42 67 54 3 322 40 3 335 165 186 331 34 36 40 82 44 161 239 300 334 335 302 251 171 129 85 42 43 39 23 16 358 344 332 6 111 295 290 288 295 305 323 13 358 358 356 355 349 339 334 332 331 334 340 340 340 350
70 110 313 350 360 148 78 57 33 41 99 88 80 125 60 93 106 43 15 19 22 165 72 107 117 109 148 147 170 183 134 76 59 82 160 249 177 281 302 149 173 175 104 34 301 222 146 114 237 274 285 278 262 242 73 104 112 101 81 99 129 69 61 41 310 313 347 290 266 269 286 295 335 10 360 3 357 347 344 337 332 330 332 337 338 338 349 0
80 162 342 358 345 153 71 60 338 23 71 137 68 75 30 81 106 74 119 24 16 138 38 59 117 78 166 164 126 162 153 165 200 151 172 244 255 215 193 174 194 160 88 35 311 262 128 70 333 283 268 265 268 60 59 105 99 74 45 48 104 109 128 177 236 306 326 289 298 297 287 300 343 2 359 0 351 340 336 336 334 331 333 337 337 342 356 352
110 181 356 10 12 178 90 94 153 64 87 156 70 49 5 72 98 61 96 6 15 136 87 89 178 52 133 121 102 161 183 141 196 256 128 182 233 87 120 193 209 63 69 31 314 305 308 12 0 346 334 330 349 357 323 307 19 37 49 42 80 86 12 253 220 351 314 274 303 311 298 305 326 347 352 350 343 336 332 335 337 334 334 336 339 349 351 344
85 145 310 13 37 76 105 148 144 131 148 104 82 62 23 63 56 36 127 130 149 153 114 93 138 83 101 83 62 87 318 47 43 296 77 183 257 4 34 299 280 89 196 289 332 331 341 70 80 54 351 326 324 319 312 318 336 11 105 63 45 73 30 328 318 341 321 301 307 309 300 305 318 336 344 342 341 336 333 335 336 338 337 336 342 351 345 342
99 79 311 355 28 55 68 72 94 110 146 124 91 47 71 87 336 327 109 108 127 134 75 59 88 67 73 69 48 345 312 17 48 99 109 253 263 307 348 341 46 129 168 53 32 70 98 86 169 154 190 249 266 272 289 311 318 307 322 4 332 306 72 7 341 329 318 314 313 306 303 309 318 332 339 341 342 337 333 334 336 338 336 336 348 348 340 342
97 101 77 352 11 41 43 25 48 85 142 135 111 158 145 108 346 345 82 112 152 118 57 59 72 69 93 80 66 302 291 355 17 92 134 249 267 287 310 11 60 211 186 74 21 78 92 308 240 188 211 236 254 268 284 302 296 288 306 333 269 276 335 24 306 296 312 320 313 314 320 316 315 327 337 338 340 336 332 334 334 333 333 337 344 339 338 344
66 138 166 93 82 83 67 55 77 84 79 86 97 116 118 103 103 156 157 44 83 96 103 65 30 25 165 123 109 171 321 2 321 253 139 225 295 341 355 45 23 319 73 29 355 94 113 267 235 194 244 255 259 268 277 283 272 270 289 220 252 296 322 315 279 280 304 310 300 311 322 316 311 324 335 335 337 332 327 328 328 327 332 340 338 336 341 345
81 110 40 18 92 140 127 70 100 93 70 68 91 113 139 145 162 192 209 34 19 351 110 134 338 328 249 152 119 145 276 56 322 284 169 147 333 18 30 37 293 336 67 64 354 102 143 251 229 207 282 278 271 271 268 256 250 269 274 240 255 282 284 276 266 273 296 296 294 306 314 309 311 323 328 331 334 326 321 325 329 333 340 344 340 341 343 343
148 148 139 60 75 88 31 34 82 90 59 52 88 132 144 148 166 190 125 80 108 316 17 103 196 203 195 165 128 142 234 180 209 254 179 130 329 217 155 194 220 342 23 72 344 349 7 300 256 85 316 290 278 276 267 237 217 235 255 249 259 285 295 290 288 303 311 300 297 313 316 311 318 326 324 328 331 329 330 330 331 339 346 343 343 343 341 341
103 133 138 112 74 359 10 35 68 96 93 54 131 160 163 166 173 155 106 81 171 186 349 121 160 150 111 138 149 249 241 188 193 219 182 150 194 198 179 189 178 328 355 41 350 349 34 337 351 56 353 287 275 321 312 306 131 132 271 276 286 323 323 296 291 310 312 304 313 331 322 312 323 330 327 327 329 333 336 331 329 340 351 347 346 342 338 341
98 102 118 104 82 346 10 60 52 102 152 189 133 149 179 187 173 124 99 306 167 155 204 173 158 146 118 234 256 248 225 200 207 220 182 141 118 121 134 154 139 137 175 127 34 1 106 62 333 39 327 285 320 338 312 312 36 60 284 236 251 331 313 294 308 319 315 323 335 316 297 307 324 329 327 327 330 335 333 325 325 340 352 351 345 338 337 341
Height
821 821 821 821 820 820 819 819 819 818 819 819 819 818 818 817 817 817 817 816 816 816 816 816 816 815 815 815 815 815 814 813 811 811 813 820 822 819 817 815 812 809 807 806 805 805 805 805 805 805 804 806 810 812 811 814 815 815 820 827 828 831 830 823 822 824 821 817 818 822 825 821 820 829 833 833 836 840 843 847 848 846 847 847 848 850 851 853
820 819 818 818 818 819 819 819 819 819 820 819 819 819 819 818 818 818 817 817 816 816 817 816 816 815 815 815 815 814 814 814 812 814 818 822 821 819 818 815 812 809 808 806 805 805 805 806 805 805 805 807 812 812 811 815 815 817 826 828 826 827 825 821 821 822 821 819 819 822 827 826 820 825 830 828 835 841 840 848 852 849 851 850 849 850 851 853
818 817 817 818 819 819 819 819 820 820 820 820 820 820 819 819 819 818 818 818 817 817 817 816 816 814 814 814 814 814 815 814 815 818 821 822 820 819 817 815 812 810 808 807 806 805 805 806 805 805 806 809 814 814 812 815 817 821 826 824 822 824 823 825 825 823 823 823 821 822 828 828 825 828 829 826 834 838 836 845 851 850 853 852 852 853 853 854
820 819 820 820 821 820 820 821 821 821 821 821 821 820 820 820 820 819 818 818 817 818 818 817 816 814 814 813 814 815 814 816 820 823 823 821 820 819 817 815 813 811 809 808 807 806 806 806 805 806 807 810 817 817 816 818 820 823 824 820 822 829 824 823 827 827 828 829 824 824 827 825 828 831 830 828 828 831 835 840 843 847 852 853 854 855 856 856
822 822 822 822 821 821 821 821 821 822 821 821 821 821 821 821 821 820 819 819 819 819 818 817 816 815 815 814 814 813 814 822 826 825 823 821 820 819 817 816 814 812 811 808 808 807 806 807 806 808 810 812 816 817 819 825 824 822 824 824 827 831 824 822 829 830 831 831 827 825 824 825 829 831 831 830 824 828 839 842 842 846 850 852 855 856 857 857
822 822 822 822 822 822 822 822 822 822 822 822 822 822 822 822 822 821 820 819 819 819 818 818 817 817 817 816 816 813 817 828 830 825 824 822 819 819 818 817 815 814 812 810 809 808 808 809 808 812 814 816 820 820 822 828 827 821 824 828 830 831 826 826 829 830 832 828 824 824 825 829 828 828 834 836 836 841 843 843 844 848 851 853 855 857 858 859
823 822 822 822 822 822 823 823 823 822 822 823 823 823 823 823 822 822 821 819 819 819 819 818 817 818 817 817 817 816 822 830 830 826 824 821 820 820 818 817 816 815 813 811 810 810 812 811 811 818 818 818 823 824 825 828 827 822 823 827 830 832 830 830 830 831 832 827 826 829 828 828 825 827 837 843 848 848 844 844 847 849 853 855 856 859 859 860
823 823 822 822 823 823 823 823 823 823 823 824 824 824 824 823 823 823 822 820 821 820 820 819 817 817 817 817 817 819 827 831 829 826 823 821 820 820 818 818 817 815 814 812 813 812 813 814 816 821 819 822 826 824 827 826 824 825 825 827 829 831 831 832 831 829 829 829 831 831 826 828 832 833 840 849 852 850 847 848 849 852 855 856 858 860 861 862
823 823 823 823 824 824 824 824 824 824 825 825 825 825 824 824 824 823 823 822 821 821 821 819 818 817 817 818 816 822 832 833 830 827 823 821 820 820 819 818 817 816 815 814 815 812 813 817 819 820 818 824 827 825 828 823 824 830 829 829 828 830 833 832 829 827 829 830 832 828 822 830 838 836 843 855 854 851 851 850 852 854 856 859 861 862 863 863
824 824 824 824 824 824 824 825 825 825 825 825 825 825 825 824 824 824 823 823 822 822 822 821 821 818 817 817 817 828 836 833 830 827 823 822 821 820 819 819 818 817 816 816 815 814 815 817 818 819 819 824 827 828 830 827 829 833 832 832 831 832 834 831 827 829 831 831 831 827 822 832 838 834 842 855 856 854 853 854 857 857 859 862 862 864 865 865
825 824 825 825 825 825 825 825 826 826 826 826 826 825 825 824 824 824 824 824 824 823 823 823 822 820 819 817 821 835 836 832 831 826 824 822 821 820 819 819 818 817 817 816 816 816 817 817 818 818 819 824 826 828 831 831 833 835 833 830 832 834 832 831 828 829 832 829 831 831 826 832 837 836 847 857 857 856 856 858 861 860 862 864 864 866 866 867
825 825 825 825 825 826 826 826 826 826 826 826 826 825 825 825 825 825 824 824 824 824 824 823 822 822 820 817 827 838 835 832 831 827 825 823 822 821 820 820 819 818 818 817 818 818 818 818 817 818 823 827 826 828 830 835 836 834 833 826 827 830 827 831 831 832 833 828 831 832 826 830 844 851 855 859 858 859 860 861 863 864 865 865 866 867 867 868
826 826 826 826 826 826 826 827 827 826 826 826 826 826 825 825 825 825 825 825 824 824 824 823 823 822 819 823 834 837 834 834 830 827 826 823 824 823 822 821 820 820 819 818 819 819 819 819 818 820 827 827 827 830 831 837 835 832 837 832 830 832 827 829 834 835 831 830 832 831 825 831 851 862 858 859 861 861 863 865 867 867 868 869 868 869 869 870
826 826 827 827 827 827 827 827 827 827 827 826 826 826 826 826 825 826 825 825 825 824 824 824 824 822 822 829 836 834 834 834 829 826 826 824 825 823 824 823 822 822 821 821 821 820 821 820 819 822 829 831 832 833 832 836 834 833 838 839 841 841 831 828 837 837 830 832 833 830 829 830 849 863 858 860 862 862 866 868 870 870 871 872 871 872 872 872
827 827 828 827 828 828 828 828 827 827 827 827 827 826 827 826 826 826 825 825 825 825 824 824 823 823 827 833 835 835 834 831 828 829 829 827 826 825 825 824 824 823 822 823 822 823 822 820 822 826 833 836 834 832 832 834 836 841 842 840 847 848 840 835 840 841 835 836 834 831 832 829 846 864 860 860 862 864 869 870 872 872 872 873 873 874 873 874
828 828 828 828 829 828 828 828 827 827 827 827 827 827 827 827 827 826 826 826 825 825 824 825 825 824 830 836 835 834 834 832 833 834 832 830 829 828 827 824 825 824 824 825 824 824 823 823 831 838 839 839 839 836 833 836 841 849 851 848 848 848 848 842 839 844 844 840 834 834 834 830 846 863 861 861 862 865 870 871 874 873 873 874 874 874 875 875
828 828 828 829 829 829 829 829 828 828 828 828 828 828 827 827 827 826 826 826 826 826 825 827 827 825 832 838 837 838 838 838 838 836 833 831 831 830 827 825 825 823 824 823 823 824 824 830 839 843 846 849 851 841 835 846 851 852 856 856 853 852 854 847 839 843 846 841 836 837 838 840 856 865 863 862 862 866 870 871 873 873 874 874 875 876 875 876
829 829 829 829 830 830 830 830 830 829 829 829 829 829 829 828 828 826 826 826 826 825 826 828 827 830 839 841 843 845 842 842 841 837 834 832 831 830 828 828 826 824 824 825 828 829 831 838 842 844 850 856 859 850 847 861 864 859 862 861 858 859 859 855 846 842 843 843 840 837 837 849 866 867 864 865 864 867 870 872 873 873 875 875 876 877 876 876
829 829 829 830 831 831 831 831 830 829 829 829 829 830 830 830 828 827 828 828 829 833 838 840 838 843 849 847 847 846 843 843 842 838 835 832 831 831 829 830 830 828 829 832 836 841 842 842 846 850 856 861 865 864 862 866 867 864 867 867 866 864 861 856 847 843 848 846 838 838 843 856 869 868 867 869 867 869 871 873 874 874 876 877 877 877 877 877
830 830 830 831 831 832 831 831 831 830 830 829 830 830 830 832 833 837 839 837 841 847 849 851 849 850 851 850 849 845 843 843 843 841 836 832 831 830 830 832 832 834 842 846 844 849 850 848 857 863 865 869 871 873 870 869 870 868 867 868 867 865 859 852 845 844 851 846 837 844 856 865 871 870 870 870 869 871 873 874 875 876 877 878 878 878 877 877
831 831 832 832 832 832 831 831 831 830 830 830 829 830 832 834 836 843 847 847 851 851 851 852 851 851 851 852 851 847 846 843 841 841 838 836 833 830 836 839 836 840 852 858 854 852 850 854 866 870 871 875 876 876 874 871 869 866 864 864 863 861 855 849 846 845 849 847 841 848 858 867 872 871 870 870 870 872 873 874 875 877 879 879 879 878 878 878
832 832 832 832 832 832 831 831 830 830 830 830 830 831 834 834 835 838 842 848 853 852 852 852 851 852 852 852 851 850 849 844 839 840 842 840 835 836 844 846 845 851 858 858 852 849 851 860 869 873 878 880 877 876 873 869 865 862 865 865 861 859 853 846 842 844 850 849 844 847 854 865 872 871 871 871 872 874 875 875 877 878 880 879 879 879 878 878
832 833 832 832 833 832 832 831 830 831 830 830 831 832 834 835 836 837 837 845 851 853 853 852 852 854 853 852 852 850 849 851 851 848 847 845 844 848 850 850 851 855 861 857 847 848 855 863 870 877 879 873 869 872 872 870 866 864 865 864 861 861 862 856 846 844 848 848 847 848 852 866 874 870 872 874 872 876 877 877 879 879 880 880 879 879 878 877
833 833 832 833 833 832 832 831 831 832 832 833 833 834 836 836 837 837 840 848 852 852 853 852 853 854 854 854 854 852 853 858 861 856 853 852 852 853 854 857 855 853 863 864 854 854 862 869 875 878 874 868 866 868 871 871 869 868 864 864 866 866 867 863 854 849 846 845 850 850 846 857 871 871 871 874 874 877 879 878 880 881 880 881 880 879 878 877
833 833 833 833 832 833 833 832 833 833 833 834 834 835 836 836 838 837 840 850 852 851 852 852 853 854 856 855 854 855 856 859 863 861 859 857 856 855 857 862 858 854 864 867 859 857 864 874 876 871 867 868 866 865 871 874 873 868 862 865 871 868 865 862 857 855 852 848 848 850 849 850 864 872 871 873 877 879 882 882 882 883 882 881 880 878 877 875
833 833 833 832 832 833 832 833 834 834 834 835 835 837 836 837 839 837 841 852 854 854 854 851 854 855 856 857 857 857 856 858 864 864 860 859 859 856 858 865 863 860 866 867 862 861 866 874 875 870 867 867 867 868 872 875 874 868 864 868 870 867 863 858 859 861 859 853 846 848 856 855 858 865 867 873 879 881 883 885 884 885 883 880 879 877 875 874
833 833 832 832 833 833 832 833 833 834 835 835 836 837 837 838 838 836 844 855 858 859 858 853 855 857 858 861 860 857 860 863 863 863 862 860 860 857 858 867 865 864 871 868 861 864 868 868 870 871 868 868 871 871 871 874 875 867 862 868 868 864 860 857 862 864 859 853 848 848 854 856 853 855 865 874 879 884 885 886 886 883 882 880 877 876 873 872
832 832 832 832 833 832 833 833 833 834 834 835 837 836 837 838 838 839 847 860 864 861 860 859 858 859 863 865 863 863 870 871 865 865 865 862 861 859 860 870 869 867 874 867 859 869 873 869 871 872 870 873 873 871 872 874 873 865 862 868 867 861 858 859 862 862 862 857 848 848 854 858 851 851 869 878 876 884 887 886 886 881 879 878 875 874 871 870
832 832 832 832 832 832 833 832 833 834 834 836 836 836 838 837 838 843 851 862 866 862 863 862 858 864 869 867 868 873 875 874 873 872 869 866 863 862 865 873 873 871 873 867 864 873 876 874 878 875 874 878 873 870 870 870 870 867 866 867 862 857 856 862 862 854 856 857 848 848 857 863 855 850 869 878 876 886 889 886 884 879 878 876 873 872 869 868
832 832 832 832 832 832 833 833 834 834 835 836 836 837 839 838 843 850 856 864 866 867 867 864 866 876 876 868 868 876 877 878 882 878 873 873 869 866 870 874 874 871 870 868 868 875 879 880 881 877 877 878 875 873 870 871 871 867 868 866 856 854 854 861 866 859 856 857 852 850 856 865 863 861 875 882 882 888 887 882 880 876 875 873 872 871 868 867
833 832 832 831 832 832 833 833 834 834 835 836 837 838 838 843 851 855 861 869 869 870 870 871 879 883 883 879 875 878 880 880 884 881 877 881 880 875 872 875 878 869 863 869 872 873 875 875 876 878 880 879 874 872 870 872 874 870 871 870 861 857 855 858 863 864 867 865 854 847 852 862 862 864 881 888 886 887 883 881 879 875 873 872 871 870 868 867
833 833 832 832 832 832 832 833 835 835 836 836 838 838 840 849 857 862 869 870 868 874 878 881 886 885 886 886 883 885 886 881 884 887 887 889 892 892 889 893 894 873 861 875 882 874 869 872 878 879 880 880 874 870 870 870 873 874 875 880 884 879 876 878 874 866 866 862 852 849 855 863 859 862 881 890 885 883 881 879 877 875 874 872 871 870 867 866
835 834 833 833 833 833 833 834 835 835 836 837 838 841 845 849 859 876 880 871 873 884 888 888 890 890 887 880 881 891 891 885 885 888 892 892 893 899 902 907 906 887 876 885 892 883 870 871 878 876 875 879 877 877 880 877 876 882 883 890 900 902 904 903 888 876 872 860 850 851 858 861 857 863 881 886 881 880 879 878 876 876 875 873 872 869 866 864
837 836 835 835 834 834 835 835 836 837 837 838 839 844 848 852 869 885 881 876 885 891 892 894 890 887 886 882 888 895 887 884 889 888 889 891 893 898 903 906 907 904 897 894 900 900 882 871 874 876 878 879 880 886 888 883 885 889 887 889 897 903 912 910 897 894 889 870 856 857 866 865 860 868 880 880 880 880 877 877 876 875 875 873 870 867 864 861
838 837 836 836 835 836 836 836 836 837 837 839 842 846 850 861 877 883 878 883 891 888 891 897 888 879 881 886 895 899 888 883 889 891 891 895 901 905 909 910 911 913 904 894 902 909 895 880 876 881 885 881 881 888 886 884 888 888 885 891 897 896 899 901 899 895 885 873 864 862 865 863 864 877 882 879 880 879 875 874 874 874 873 871 868 865 862 859
838 838 836 836 837 837 836 836 837 838 839 840 841 850 863 873 881 883 885 891 892 890 888 888 885 878 878 884 890 894 893 888 888 888 892 902 907 909 914 915 916 917 908 901 907 910 898 883 878 882 883 882 885 887 886 887 886 886 890 896 897 893 893 897 893 881 876 878 871 863 863 861 867 879 883 882 881 875 873 873 873 874 872 869 867 863 859 857
838 838 838 838 838 837 837 837 837 838 840 839 843 862 881 887 888 892 896 898 898 899 887 877 884 888 884 884 884 887 890 888 888 885 888 899 904 907 914 917 917 919 916 913 912 913 909 892 883 886 882 881 889 887 887 891 888 890 899 898 894 893 895 903 903 889 883 885 873 866 871 870 872 880 881 881 878 871 873 874 873 873 870 868 866 861 858 857
838 838 838 839 838 838 838 836 838 839 839 846 861 880 889 890 895 899 901 901 900 897 885 878 888 896 893 888 886 895 894 883 887 892 892 896 899 906 914 915 916 919 920 918 910 914 919 898 884 894 890 883 888 888 886 891 892 892 896 897 900 900 897 912 923 908 894 895 882 869 871 874 875 879 879 877 875 873 873 873 873 872 870 868 864 859 859 858
838 838 839 841 839 839 838 837 840 839 836 850 872 883 887 892 899 903 904 903 899 892 886 888 895 896 898 895 891 901 902 891 894 898 894 894 898 906 915 915 915 918 920 920 913 915 920 904 888 893 894 885 884 886 887 891 895 895 896 900 905 907 910 923 931 918 908 908 894 874 875 881 877 875 877 877 876 876 876 874 873 871 870 868 864 861 860 858
838 838 840 842 838 839 840 836 839 842 846 865 881 885 889 894 898 905 908 904 899 893 890 894 897 893 895 901 900 903 905 903 903 900 896 901 902 904 916 920 917 918 921 920 918 917 919 913 899 889 890 889 884 887 892 895 897 897 900 908 913 913 912 913 919 921 918 914 905 897 893 885 875 873 876 877 877 878 878 876 874 872 870 867 864 864 862 859
838 838 840 841 839 840 838 839 853 866 870 880 888 888 892 894 895 903 910 908 903 899 897 897 897 894 895 899 902 905 906 906 906 904 902 905 902 901 914 923 919 919 920 916 917 919 916 917 911 899 895 890 884 889 893 894 897 898 902 913 921 920 912 911 915 918 920 921 920 920 908 883 870 871 874 876 878 880 879 878 875 871 869 866 865 865 862 860
837 840 842 841 839 838 838 850 876 887 880 882 887 890 893 894 894 899 905 907 903 899 900 900 899 900 900 899 902 907 906 904 905 904 905 907 904 904 915 924 923 921 917 913 917 922 920 922 919 907 896 887 887 896 899 897 898 901 909 918 922 922 923 927 924 915 919 924 917 914 904 881 867 869 872 876 879 880 880 880 876 871 868 867 865 864 862 862
839 841 842 841 840 839 840 857 881 887 885 890 895 896 897 895 895 898 900 901 899 898 897 898 900 900 900 903 905 906 904 902 903 904 906 909 910 913 920 924 923 920 916 912 916 920 919 921 915 899 887 883 887 896 899 898 896 899 912 922 924 926 929 932 930 925 928 927 916 909 899 876 863 866 872 876 879 880 879 879 877 872 869 868 866 864 863 863
843 843 843 841 838 836 840 852 869 882 890 893 891 893 896 897 897 896 897 897 898 898 894 896 902 901 902 908 906 904 904 898 899 906 910 910 912 918 923 924 921 917 915 913 915 916 912 911 909 901 895 890 887 892 894 893 895 901 915 927 930 930 931 930 933 935 931 922 915 912 898 874 862 867 873 877 879 880 878 877 877 874 871 868 866 865 865 863
842 843 845 844 839 840 849 860 866 875 886 886 885 891 893 895 900 899 898 899 903 903 896 898 905 904 907 911 905 906 909 899 897 906 912 912 914 919 923 923 921 918 918 920 921 916 912 914 913 911 915 916 908 905 898 893 898 906 915 927 930 931 934 931 926 927 923 913 909 911 898 875 864 869 876 879 880 879 876 874 874 874 873 870 868 867 866 864
839 842 845 846 847 851 863 874 871 870 879 879 881 893 892 889 898 904 901 900 904 906 902 902 907 905 905 906 901 902 907 907 906 905 907 908 910 918 924 922 921 920 919 922 922 919 920 923 917 911 915 919 914 907 900 898 906 910 913 922 926 929 935 931 924 923 918 908 903 902 896 880 872 876 880 880 882 881 878 875 872 872 872 870 870 870 867 865
839 846 853 851 851 857 865 874 873 872 878 876 877 890 892 888 895 899 899 901 904 906 904 905 907 902 898 901 899 898 904 911 910 906 909 913 912 919 925 922 921 921 920 922 922 921 920 917 918 918 913 908 907 905 903 907 913 913 914 921 925 928 931 930 927 921 914 912 903 891 891 891 884 882 883 883 885 883 880 879 876 874 872 871 871 870 868 866
844 853 866 860 856 863 866 870 876 877 879 882 887 893 891 889 891 892 895 901 904 904 900 899 904 904 902 904 899 896 902 904 903 905 913 918 916 915 917 920 922 921 921 922 922 923 919 914 923 928 917 912 914 911 908 913 915 912 915 921 923 925 925 925 924 917 914 919 907 887 891 900 892 886 887 887 887 886 884 882 880 877 874 873 873 870 868 866
852 857 868 866 865 875 880 879 881 878 878 883 888 892 889 885 888 896 902 900 897 902 900 892 898 906 908 909 904 898 899 894 891 902 910 913 916 914 911 914 919 921 921 919 923 929 920 914 927 932 922 915 913 909 910 914 913 912 916 921 922 923 923 920 918 915 912 911 903 894 899 902 895 890 889 887 887 887 884 881 879 877 875 874 873 870 868 866
847 848 859 865 870 882 886 885 881 874 879 884 881 887 892 885 886 898 907 900 890 896 900 894 898 909 911 911 906 899 901 898 893 901 909 910 914 915 912 912 915 920 920 919 926 930 920 916 929 934 924 911 904 903 906 907 911 916 918 921 922 921 919 917 914 910 908 905 904 906 906 899 893 891 889 887 887 886 883 880 878 876 876 875 873 870 868 866
842 843 849 852 867 883 883 884 884 874 874 879 878 886 892 887 888 895 902 908 902 897 901 899 901 910 912 911 906 902 907 910 904 906 911 910 910 912 913 915 918 917 917 921 926 925 921 922 929 933 924 905 896 899 900 904 914 918 916 918 922 919 916 915 912 907 906 906 907 913 913 903 893 890 888 888 887 886 885 882 878 877 878 876 874 871 869 867
843 846 846 845 863 885 885 883 885 875 872 880 885 890 891 890 897 897 892 904 913 907 908 908 904 905 904 902 904 906 910 913 911 913 915 914 914 916 916 917 919 917 916 922 928 930 930 925 925 932 922 897 892 902 902 900 899 898 904 915 918 915 912 908 904 902 905 910 914 919 918 905 896 894 893 890 888 889 888 884 880 880 879 877 876 873 870 869